Погода в Уаннаммин-Лейк

Канада     52°55′59″N   89°17′55″W
темп.,
°C
ветер,
м/с
пор.,
м/с
влажн.,
%
обл.,
%
осадки,
мм/ч
давл.,
гПа
погр.,
м
26 октября, вт
вт2623:000ююв36855 0.0 1027151
02:000ю36885 0.0 1027153
05:00−1ююв37865 0.0 1026168
08:00−1ююв37855 0.0 1026214
11:00+2ююв47695 0.0 1026420
14:00+5ююв69565 0.0 1023760
17:00+6ююв486096 0.0 1022822
20:00+3юв41078100 0.0 1022321
27 октября, ср
ср2723:00+2юв61384100 0.0 1021438
02:00+1ююв51385100 0.0 1020506
05:00+1ююв51486100 0.0 1019465
08:00+1ююв5148732 0.0 1018434
11:00+3ююв51378100 0.0 1017457
14:00+6ююв61165100 0.0 1015606
17:00+7ююв51267100 0.0 1013699
20:00+5юв51477100 0.0 1013581
28 октября, чт
чт2823:00+5ююв51683100 0.0 1012590
02:00+5ююв51387100 0.0 1012470
05:00+5ююв41091100 0.0 1012389
08:00+5ююв3994100 0.0 1012280
11:00+6ююв3988100 0.0 1012324
14:00+9ю3677100 0.0 1011556
17:00+9ю2581100 0.0 1011158
20:00+7ю2491100 0.0 101274
29 октября, пт
пт2923:00+6зюз2491100 0.0 1012100
02:00+6з2695100 0.3 1013368
05:00+6з2794100 1.0 1013385
08:00+6зюз2695100 1.1 1014243
11:00+7зюз268718 0.0 1015220
14:00+10з34565 0.0 10141100
17:00+10юз23585 0.0 1013336
20:00+6ю227524 0.0 101420
30 октября, сб
сб3023:00+5ююв378438 0.0 1013130
02:00+5ююв3985100 0.0 1011225
05:00+6ю41283100 0.0 1009375
08:00+6ю51382100 0.0 1007459
11:00+7ю51379100 0.0 1005504
14:00+9юз51068100 0.0 1003779
17:00+7зюз4890100 1.7 1004986
20:00+6з5985100 2.1 1005785